GW0260 Weather Reports


Display with metric or nautical units.
time (UTC)temp
F
wind
direction
speed
MPH
gust
MPH
rain 1hr
in
rain 24hr
in
rain mn
in
humidity
%
barometer
mb
20260507130413 56 71 1.0 2.0 0.00 0.14 0.14 82
20260507125912 56 247 1.0 3.0 0.00 0.14 0.14 83
20260507125409 55 275 1.0 2.0 0.00 0.14 0.14 85
20260507124906 55 277 1.0 1.0 0.00 0.14 0.14 85
20260507124402 55 301 3.0 5.0 0.00 0.14 0.14 85
20260507123901 55 190 1.0 2.0 0.00 0.14 0.14 87
20260507123358 54 96 1.0 2.0 0.00 0.14 0.14 89
20260507122854 55 291 2.0 3.0 0.00 0.14 0.14 90
20260507122349 54 330 0.0 1.0 0.00 0.14 0.14 93
20260507121846 52 336 0.0 2.0 0.00 0.14 0.14 96
20260507121341 51 348 0.0 5.0 0.00 0.14 0.14 99
20260507120838 50 359 0.0 1.0 0.00 0.14 0.14 99
20260507120335 50 316 0.0 1.0 0.00 0.14 0.14 99
20260507115831 50 281 1.0 1.0 0.00 0.14 0.14 99
20260507115326 50 295 0.0 3.0 0.00 0.14 0.14 99
20260507114822 50 284 0.0 0.0 0.00 0.14 0.14 99
20260507114320 49 284 0.0 0.0 0.00 0.14 0.14 99
20260507113817 49 296 0.0 0.0 0.00 0.14 0.14 99
20260507113314 49 292 0.0 0.0 0.00 0.14 0.14 99
20260507112812 49 302 1.0 1.0 0.00 0.14 0.14 99
20260507112308 49 302 1.0 1.0 0.00 0.14 0.14 99
20260507111806 49 294 0.0 0.0 0.00 0.14 0.14 99
20260507111303 49 289 0.0 0.0 0.00 0.14 0.14 99
20260507110759 48 245 2.0 2.0 0.00 0.14 0.14 99
20260507110255 49 253 1.0 2.0 0.00 0.14 0.14 99
20260507105752 48 313 0.0 0.0 0.00 0.14 0.14 99
20260507105248 49 323 0.0 0.0 0.00 0.14 0.14 99
20260507104746 49 315 0.0 0.0 0.00 0.14 0.14 99
20260507104242 48 296 0.0 1.0 0.00 0.14 0.14 99
20260507103738 48 309 1.0 1.0 0.00 0.14 0.14 99
20260507103234 48 285 0.0 1.0 0.00 0.14 0.14 99
20260507102731 48 281 0.0 2.0 0.00 0.14 0.14 99
20260507102228 48 274 1.0 2.0 0.00 0.14 0.14 99
20260507101724 48 298 0.0 0.0 0.00 0.14 0.14 99
20260507101219 48 311 0.0 0.0 0.00 0.14 0.14 99
20260507100716 48 319 0.0 0.0 0.00 0.14 0.14 99
20260507100215 48 319 0.0 0.0 0.00 0.14 0.14 99
20260507095713 48 319 0.0 0.0 0.00 0.14 0.14 99
20260507095209 48 339 0.0 0.0 0.00 0.14 0.14 99
20260507094706 48 40 0.0 1.0 0.07 0.14 0.14 99
20260507094203 48 350 0.0 0.0 0.07 0.14 0.14 99
20260507093659 48 10 0.0 0.0 0.05 0.13 0.13 99
20260507093158 48 334 0.0 0.0 0.12 0.13 0.13 99
20260507092655 48 309 0.0 1.0 0.07 0.12 0.12 99
20260507092151 48 185 2.0 2.0 0.05 0.11 0.11 99
20260507091648 48 332 0.0 0.0 0.07 0.10 0.10 99
20260507091144 49 330 0.0 1.0 0.12 0.10 0.10 99
20260507090639 49 337 0.0 1.0 0.12 0.09 0.09 99
20260507090137 49 344 0.0 1.0 0.14 0.08 0.08 99
20260507085634 49 292 0.0 1.0 0.05 0.06 0.06 98
20260507085131 49 295 0.0 0.0 0.12 0.06 0.06 98
20260507084627 49 302 1.0 1.0 0.05 0.04 0.04 97
20260507084124 49 263 1.0 3.0 0.05 0.04 0.04 97
20260507083621 49 302 0.0 1.0 0.00 0.03 0.03 97
20260507083118 49 334 1.0 2.0 0.00 0.03 0.03 97
20260507082614 49 279 1.0 2.0 0.00 0.03 0.03 96
20260507082110 49 294 1.0 1.0 0.00 0.03 0.03 95
20260507081607 50 280 2.0 3.0 0.07 0.03 0.03 95
20260507081103 50 312 1.0 1.0 0.07 0.03 0.03 94
20260507080600 50 302 1.0 2.0 0.05 0.02 0.02 93
20260507080056 51 316 1.0 1.0 0.05 0.02 0.02 92
20260507075551 51 242 2.0 2.0 0.00 0.01 0.01 92
20260507075048 51 276 1.0 3.0 0.00 0.01 0.01 92
20260507074545 51 291 1.0 1.0 0.00 0.01 0.01 91
20260507074043 51 219 1.0 7.0 0.00 0.01 0.01 90
20260507073539 52 280 2.0 2.0 0.00 0.01 0.01 89
20260507073036 52 294 3.0 3.0 0.07 0.01 0.01 88
20260507072533 53 287 1.0 5.0 0.00 0.00 0.00 86
20260507072030 53 298 3.0 5.0 0.00 0.00 0.00 88
20260507071528 53 277 1.0 1.0 0.00 0.00 0.00 91
20260507071024 53 296 0.0 2.0 0.00 0.00 0.00 91
20260507070521 53 286 1.0 1.0 0.00 0.00 0.00 90
20260507070018 53 13 1.0 2.0 0.00 0.00 0.00 90
20260507065514 53 9 0.0 1.0 0.00 0.00 0.00 90
20260507065012 53 337 0.0 0.0 0.00 0.00 0.00 90
20260507064510 53 228 1.0 2.0 0.00 0.00 0.00 89
20260507064008 53 310 0.0 2.0 0.00 0.00 0.00 88
20260507063504 53 29 0.0 2.0 0.00 0.00 0.00 88
20260507063002 54 233 1.0 3.0 0.00 0.00 0.00 88
20260507062458 54 260 2.0 6.0 0.00 0.00 0.00 87
20260507061956 55 235 2.0 3.0 0.00 0.00 0.00 91
20260507061454 55 263 1.0 2.0 0.00 0.00 0.00 92
20260507060952 55 290 1.0 5.0 0.00 0.00 0.00 92
20260507060448 55 281 1.0 2.0 0.00 0.00 0.00 93
20260507055945 55 271 1.0 2.0 0.00 0.00 0.00 93
20260507055440 56 241 1.0 2.0 0.00 0.00 0.00 94
20260507054937 56 279 1.0 3.0 0.00 0.00 0.00 94
20260507054433 56 269 2.0 3.0 0.00 0.00 0.00 95
20260507053931 55 245 2.0 2.0 0.00 0.00 0.00 96
20260507053428 56 333 0.0 2.0 0.00 0.00 0.00 96
20260507052927 56 244 3.0 5.0 0.00 0.00 0.00 96
20260507052424 56 317 0.0 1.0 0.00 0.00 0.00 96
20260507051921 56 316 0.0 1.0 0.00 0.00 0.00 96
20260507051418 56 36 0.0 2.0 0.00 0.00 0.00 96
20260507050915 57 259 0.0 1.0 0.00 0.00 0.00 96
20260507050412 57 15 0.0 3.0 0.00 0.00 0.00 97
20260507045908 57 290 2.0 2.0 0.00 0.00 0.00 97
20260507045405 58 283 0.0 1.0 0.00 0.00 0.00 97
20260507044902 58 319 1.0 3.0 0.00 0.00 0.00 96
20260507044359 58 216 2.0 6.0 0.00 0.00 0.00 96
20260507043855 58 234 1.0 3.0 0.00 0.00 0.00 96
20260507043352 58 258 1.0 3.0 0.00 0.00 0.00 96
20260507042848 58 259 3.0 3.0 0.00 0.00 0.00 96
20260507042344 59 270 3.0 3.0 0.00 0.00 0.00 96
20260507041841 59 290 0.0 1.0 0.00 0.00 0.00 96
20260507041337 59 286 2.0 2.0 0.00 0.00 0.00 96
20260507040835 59 259 4.0 5.0 0.00 0.00 0.00 96
20260507040330 59 306 2.0 5.0 0.00 0.00 0.00 97
20260507035827 59 251 3.0 5.0 0.00 0.11 0.11 98
20260507035322 59 353 4.0 7.0 0.00 0.11 0.11 99
20260507034820 59 256 3.0 5.0 0.00 0.11 0.11 99
20260507034316 59 283 1.0 2.0 0.00 0.11 0.11 99
20260507033815 59 228 2.0 5.0 0.00 0.11 0.11 99
20260507033312 59 241 2.0 3.0 0.00 0.11 0.11 99
20260507032809 59 263 1.0 3.0 0.00 0.11 0.11 99
20260507032306 59 267 1.0 2.0 0.00 0.11 0.11 99
20260507031802 59 230 2.0 5.0 0.00 0.11 0.11 99
20260507031259 59 271 4.0 5.0 0.00 0.11 0.11 99
20260507030755 59 249 2.0 3.0 0.00 0.11 0.11 99
20260507030253 59 288 2.0 5.0 0.00 0.11 0.11 99
20260507025750 59 257 2.0 5.0 0.00 0.11 0.11 99
20260507025247 59 240 1.0 6.0 0.00 0.11 0.11 99
20260507024745 59 286 1.0 3.0 0.00 0.11 0.11 99
20260507024242 59 290 5.0 6.0 0.00 0.11 0.11 99
20260507023737 59 221 1.0 5.0 0.00 0.11 0.11 99
20260507023235 59 231 3.0 3.0 0.00 0.11 0.11 99
20260507022732 59 231 2.0 5.0 0.00 0.11 0.11 99
20260507022228 59 287 2.0 5.0 0.00 0.11 0.11 99
20260507021724 59 287 2.0 5.0 0.00 0.11 0.11 99
20260507021220 59 254 4.0 5.0 0.00 0.11 0.11 99
20260507020719 59 316 3.0 5.0 0.00 0.11 0.11 99
20260507020214 58 282 3.0 5.0 0.00 0.11 0.11 99
20260507015712 58 268 4.0 8.0 0.00 0.11 0.11 99
20260507015209 58 275 3.0 6.0 0.00 0.11 0.11 99
20260507014706 58 249 0.0 3.0 0.00 0.11 0.11 99
20260507014202 58 216 2.0 2.0 0.00 0.11 0.11 99
20260507013659 58 250 1.0 5.0 0.00 0.11 0.11 99
20260507013156 58 237 2.0 3.0 0.00 0.11 0.11 99
20260507012654 58 233 2.0 6.0 0.00 0.11 0.11 99
20260507012149 58 286 3.0 5.0 0.00 0.11 0.11 99
20260507011647 58 262 1.0 5.0 0.00 0.11 0.11 99
20260507011143 58 209 6.0 10.0 0.00 0.11 0.11 99
20260507010638 58 291 6.0 7.0 0.00 0.11 0.11 99
20260507010134 58 221 6.0 9.0 0.00 0.11 0.11 99
20260507005632 58 294 2.0 6.0 0.00 0.11 0.11 99
20260507005127 58 230 2.0 3.0 0.00 0.11 0.11 99
20260507004624 58 276 3.0 7.0 0.00 0.11 0.11 99
20260507004122 58 324 2.0 3.0 0.00 0.11 0.11 99
20260507003618 58 284 3.0 9.0 0.00 0.11 0.11 99
20260507003113 58 208 4.0 6.0 0.00 0.11 0.11 99
20260507002610 58 222 3.0 5.0 0.00 0.11 0.11 99
20260507002105 58 244 3.0 5.0 0.00 0.11 0.11 99
20260507001603 58 297 2.0 6.0 0.00 0.11 0.11 99
20260507001100 58 288 1.0 5.0 0.00 0.11 0.11 99
20260507000556 58 324 2.0 2.0 0.00 0.11 0.11 99
20260507000052 58 230 2.0 2.0 0.00 0.11 0.11 99
20260506235550 58 349 3.0 3.0 0.00 0.11 0.11 99
20260506235044 58 307 2.0 2.0 0.00 0.11 0.11 99
20260506234542 58 224 1.0 5.0 0.00 0.11 0.11 99
20260506234039 58 344 1.0 3.0 0.00 0.11 0.11 99
20260506233536 58 281 1.0 2.0 0.05 0.11 0.11 99
20260506233033 58 293 1.0 3.0 0.12 0.11 0.11 99
20260506232529 59 216 3.0 3.0 0.00 0.09 0.09 99
20260506232025 59 331 0.0 2.0 0.00 0.09 0.09 99
20260506231522 59 191 3.0 5.0 0.05 0.09 0.09 99
20260506231020 59 235 3.0 6.0 0.05 0.09 0.09 99
20260506230516 59 202 1.0 2.0 0.07 0.08 0.08 99
20260506230014 59 79 1.0 2.0 0.00 0.07 0.07 99
20260506225510 59 245 3.0 7.0 0.00 0.07 0.07 99
20260506225007 59 241 2.0 2.0 0.00 0.07 0.07 99
20260506224504 59 278 0.0 6.0 0.00 0.07 0.07 99
20260506224000 59 270 2.0 2.0 0.00 0.07 0.07 99
20260506223456 59 329 1.0 3.0 0.00 0.07 0.07 99
20260506222953 59 228 2.0 3.0 0.00 0.07 0.07 99
20260506222450 59 219 1.0 3.0 0.05 0.07 0.07 99
20260506221947 59 285 4.0 6.0 0.05 0.07 0.07 99
20260506221444 59 312 3.0 5.0 0.00 0.06 0.06 99
20260506220942 60 198 1.0 2.0 0.00 0.06 0.06 99
20260506220437 60 228 3.0 3.0 0.00 0.06 0.06 99
20260506215934 60 205 2.0 5.0 0.00 0.06 0.06 99
20260506215430 60 229 1.0 3.0 0.00 0.06 0.06 99
20260506214926 60 208 1.0 5.0 0.00 0.06 0.06 99
20260506214423 60 245 1.0 6.0 0.00 0.06 0.06 99
20260506213921 60 334 5.0 7.0 0.00 0.06 0.06 99
20260506213418 60 204 2.0 3.0 0.07 0.06 0.06 99
20260506212915 60 133 3.0 8.0 0.07 0.06 0.06 99
20260506212411 60 274 4.0 6.0 0.00 0.05 0.05 99
20260506211906 60 271 3.0 7.0 0.00 0.05 0.05 99
20260506211403 61 330 2.0 3.0 0.00 0.05 0.05 98
20260506210900 61 285 1.0 10.0 0.00 0.05 0.05 98
20260506210356 60 210 4.0 8.0 0.00 0.05 0.05 98
20260506205854 61 311 2.0 8.0 0.00 0.05 0.05 98
20260506205349 61 260 2.0 10.0 0.00 0.05 0.05 98
20260506204846 61 249 3.0 5.0 0.00 0.05 0.05 98
20260506204344 61 241 1.0 3.0 0.00 0.05 0.05 98
20260506203841 60 192 4.0 7.0 0.00 0.05 0.05 98
20260506203338 60 289 6.0 10.0 0.00 0.05 0.05 98
20260506202835 60 16 1.0 9.0 0.00 0.05 0.05 98
20260506202332 60 235 5.0 8.0 0.00 0.05 0.05 97
20260506201828 61 356 1.0 5.0 0.00 0.05 0.05 98
20260506201326 60 300 0.0 2.0 0.00 0.05 0.05 98
20260506200823 61 292 3.0 5.0 0.00 0.05 0.05 97
20260506200319 61 294 2.0 5.0 0.00 0.05 0.05 97
20260506195815 61 214 4.0 5.0 0.00 0.05 0.05 97
20260506195312 61 286 3.0 9.0 0.00 0.05 0.05 98
20260506194809 61 298 2.0 7.0 0.07 0.05 0.05 98
20260506194305 61 284 1.0 1.0 0.07 0.05 0.05 98
20260506193803 62 216 1.0 1.0 0.05 0.04 0.04 97
20260506193300 61 62 0.0 2.0 0.05 0.04 0.04 96
20260506192756 61 226 3.0 5.0 0.07 0.03 0.03 95
20260506192253 62 258 3.0 6.0 0.07 0.03 0.03 94
20260506191750 62 248 6.0 8.0 0.05 0.02 0.02 92
20260506191246 62 294 5.0 8.0 0.05 0.02 0.02 91
20260506190743 62 276 9.0 14.0 0.00 0.01 0.01 90
20260506190240 63 221 5.0 8.0 0.07 0.01 0.01 89
20260506185737 64 232 3.0 8.0 0.07 0.01 0.01 87
20260506185234 64 190 3.0 7.0 0.00 0.00 0.00 84
20260506184731 66 274 3.0 6.0 0.00 0.00 0.00 81
20260506184228 66 247 3.0 8.0 0.00 0.00 0.00 79
20260506183725 66 227 5.0 9.0 0.00 0.00 0.00 77
20260506183220 67 270 3.0 5.0 0.00 0.00 0.00 76
20260506182718 68 255 6.0 7.0 0.00 0.00 0.00 74
20260506182215 68 298 5.0 8.0 0.00 0.00 0.00 73
20260506181713 68 294 6.0 9.0 0.00 0.00 0.00 71
20260506181210 68 264 8.0 13.0 0.00 0.00 0.00 70
20260506180707 69 281 8.0 10.0 0.00 0.00 0.00 70
20260506180203 69 219 4.0 11.0 0.00 0.00 0.00 69
20260506175659 69 197 7.0 18.0 0.00 0.00 0.00 67
20260506175156 69 322 8.0 11.0 0.00 0.00 0.00 68
20260506174649 70 124 6.0 9.0 0.00 0.00 0.00 67
20260506174145 70 60 4.0 15.0 0.00 0.00 0.00 67
20260506173643 71 261 5.0 8.0 0.00 0.00 0.00 66
20260506173134 71 272 4.0 7.0 0.00 0.00 0.00 66
20260506172631 71 265 8.0 15.0 0.00 0.00 0.00 64
20260506172127 71 265 5.0 15.0 0.00 0.00 0.00 64
20260506171625 71 255 5.0 10.0 0.00 0.00 0.00 63
20260506171123 72 283 4.0 6.0 0.00 0.00 0.00 64
20260506170620 72 324 4.0 8.0 0.00 0.00 0.00 63
20260506170117 72 176 3.0 8.0 0.00 0.00 0.00 64
20260506165615 72 226 5.0 14.0 0.00 0.00 0.00 63
20260506165111 72 283 2.0 7.0 0.00 0.00 0.00 64
20260506164608 71 220 4.0 9.0 0.00 0.00 0.00 64
20260506164106 71 194 5.0 8.0 0.00 0.00 0.00 66
20260506163601 71 253 5.0 11.0 0.00 0.00 0.00 63
20260506163057 71 256 4.0 11.0 0.00 0.00 0.00 64
20260506162554 72 197 7.0 13.0 0.00 0.00 0.00 62
20260506162051 72 309 3.0 8.0 0.00 0.00 0.00 65
20260506161549 71 284 3.0 11.0 0.00 0.00 0.00 65
20260506161045 71 201 7.0 9.0 0.00 0.00 0.00 63
20260506160543 71 273 3.0 9.0 0.00 0.00 0.00 64
20260506160040 71 210 4.0 10.0 0.00 0.00 0.00 64
20260506155539 71 283 5.0 8.0 0.00 0.00 0.00 65
20260506153715 70 254 3.0 3.0 0.00 0.00 0.00 67
20260506153213 70 258 4.0 9.0 0.00 0.00 0.00 68
20260506152709 71 310 3.0 6.0 0.00 0.00 0.00 68
20260506152207 70 175 2.0 11.0 0.00 0.00 0.00 68
20260506151706 71 217 2.0 10.0 0.00 0.00 0.00 69
20260506151202 71 245 12.0 23.0 0.00 0.00 0.00 66
20260506150658 71 267 7.0 17.0 0.00 0.00 0.00 65
20260506150155 71 242 3.0 6.0 0.00 0.00 0.00 68
20260506145652 72 36 1.0 16.0 0.00 0.00 0.00 67
20260506145149 71 249 3.0 7.0 0.00 0.00 0.00 67
20260506144647 71 260 1.0 8.0 0.00 0.00 0.00 69
20260506144143 70 196 4.0 8.0 0.00 0.00 0.00 67
20260506143641 71 357 5.0 10.0 0.00 0.00 0.00 67
20260506143139 70 292 3.0 9.0 0.00 0.00 0.00 69
20260506142637 71 301 4.0 6.0 0.00 0.00 0.00 68
20260506142135 70 269 1.0 2.0 0.00 0.00 0.00 69
20260506141632 70 300 4.0 9.0 0.00 0.00 0.00 70
20260506141130 70 280 2.0 7.0 0.00 0.00 0.00 70
20260506140628 70 245 4.0 13.0 0.00 0.00 0.00 72
20260506140125 70 320 2.0 6.0 0.00 0.00 0.00 73
20260506135622 70 208 5.0 9.0 0.00 0.00 0.00 71
20260506135118 70 291 2.0 3.0 0.00 0.00 0.00 75
20260506134614 70 288 3.0 6.0 0.00 0.00 0.00 73
20260506134110 68 215 4.0 6.0 0.00 0.00 0.00 75
20260506133608 69 286 1.0 3.0 0.00 0.00 0.00 77
20260506133104 67 200 8.0 13.0 0.00 0.00 0.00 76
20260506132602 67 204 3.0 7.0 0.00 0.00 0.00 76
20260506132059 67 249 3.0 5.0 0.00 0.00 0.00 77
20260506131556 67 204 2.0 5.0 0.00 0.00 0.00 77
20260506131052 67 269 3.0 3.0 0.00 0.00 0.00 78